Cheat Lake Weather Center

Moon Phase Calendar



Cheat Lake Water Level
Online Cameras

 


      

Current Conditions in Cheat Lake
6/13/2021 12:26:11 PM

81°F
Feels Like 85
Clouds
Humidity
75%
Pressure
29.91"
Wind
3.4 mph (N)
Dew Point
72°F
UV Index
8/10 (Very High)
Visibility
6 mi

Hourly Forecast

Date & Time Sun, Jun 13
12:00 PM
Sun, Jun 13
1:00 PM
Sun, Jun 13
2:00 PM
Sun, Jun 13
3:00 PM
Sun, Jun 13
4:00 PM
Sun, Jun 13
5:00 PM
Sun, Jun 13
6:00 PM
Sun, Jun 13
7:00 PM
Sun, Jun 13
8:00 PM
Sun, Jun 13
9:00 PM
Sun, Jun 13
10:00 PM
Sun, Jun 13
11:00 PM
Mon, Jun 14
12:00 AM
Mon, Jun 14
1:00 AM
Mon, Jun 14
2:00 AM
Mon, Jun 14
3:00 AM
Mon, Jun 14
4:00 AM
Mon, Jun 14
5:00 AM
Mon, Jun 14
6:00 AM
Mon, Jun 14
7:00 AM
Mon, Jun 14
8:00 AM
Mon, Jun 14
9:00 AM
Mon, Jun 14
10:00 AM
Mon, Jun 14
11:00 AM
Mon, Jun 14
12:00 PM
Mon, Jun 14
1:00 PM
Mon, Jun 14
2:00 PM
Mon, Jun 14
3:00 PM
Mon, Jun 14
4:00 PM
Mon, Jun 14
5:00 PM
Mon, Jun 14
6:00 PM
Mon, Jun 14
7:00 PM
Mon, Jun 14
8:00 PM
Mon, Jun 14
9:00 PM
Mon, Jun 14
10:00 PM
Mon, Jun 14
11:00 PM
Tue, Jun 15
12:00 AM
Tue, Jun 15
1:00 AM
Tue, Jun 15
2:00 AM
Tue, Jun 15
3:00 AM
Tue, Jun 15
4:00 AM
Tue, Jun 15
5:00 AM
Tue, Jun 15
6:00 AM
Tue, Jun 15
7:00 AM
Tue, Jun 15
8:00 AM
Tue, Jun 15
9:00 AM
Tue, Jun 15
10:00 AM
Tue, Jun 15
11:00 AM
Condition
Rain

Clouds

Clouds

Rain

Rain

Rain

Rain

Rain

Rain

Rain

Rain

Clouds

Clouds

Clouds

Clouds

Clouds

Clouds

Clouds

Clouds

Clouds

Clouds

Clouds

Clouds

Clouds

Clouds

Clouds

Clouds

Clouds

Clouds

Clouds

Rain

Rain

Rain

Rain

Rain

Clear

Clear

Clear

Clear

Clear

Clouds

Clouds

Clouds

Clouds

Clouds

Clouds

Clouds

Clouds
Temperature 81°F81°F81°F82°F82°F82°F77°F68°F65°F63°F62°F61°F61°F60°F61°F62°F62°F60°F60°F61°F65°F67°F70°F75°F79°F81°F83°F84°F79°F80°F75°F69°F67°F63°F61°F60°F59°F58°F57°F56°F55°F54°F53°F55°F58°F61°F65°F69°F
Feels Like 85°F85°F86°F86°F87°F86°F78°F69°F66°F63°F62°F62°F61°F61°F61°F63°F63°F61°F60°F62°F66°F68°F71°F75°F78°F81°F82°F83°F79°F80°F76°F70°F68°F64°F62°F61°F59°F58°F57°F55°F55°F54°F53°F55°F58°F61°F65°F69°F
Cloudiness 75%63%57%49%29%20%19%35%46%32%39%34%26%21%25%74%71%54%46%44%46%71%70%53%41%33%28%31%55%51%56%60%50%1%1%1%2%4%5%10%11%15%18%20%23%47%40%34%
Visibility 6 mi6 mi6 mi6 mi6 mi6 mi4 mi6 mi6 mi6 mi6 mi6 mi6 mi6 mi6 mi6 mi6 mi6 mi6 mi6 mi6 mi6 mi6 mi6 mi6 mi6 mi6 mi6 mi6 mi6 mi6 mi6 mi6 mi6 mi6 mi6 mi6 mi6 mi6 mi6 mi6 mi6 mi6 mi6 mi6 mi6 mi6 mi6 mi
Precipitation 45%68%86%83%81%88%100%100%100%86%80%80%76%75%63%0%0%0%0%0%0%0%0%0%0%0%0%0%9%11%34%33%73%86%71%64%56%52%44%1%1%0%0%0%0%0%0%0%
Humidity 75%72%72%71%69%69%87%96%96%94%94%96%97%96%97%97%97%98%99%99%98%94%79%59%46%40%39%39%48%48%64%85%92%96%98%98%98%98%98%98%99%99%99%99%96%89%72%59%
Dew Point 72°F71°F71°F71°F71°F69°F71°F66°F63°F60°F59°F59°F59°F58°F59°F60°F60°F59°F58°F60°F63°F64°F62°F58°F55°F54°F54°F55°F57°F57°F61°F63°F63°F61°F59°F59°F57°F56°F55°F54°F53°F53°F52°F54°F56°F56°F55°F53°F
Pressure 29.91"29.91"29.88"29.88"29.85"29.83"29.8"29.83"29.88"29.88"29.91"29.91"29.88"29.88"29.88"29.88"29.88"29.88"29.88"29.88"29.88"29.91"29.91"29.88"29.88"29.85"29.83"29.8"29.8"29.8"29.8"29.83"29.83"29.85"29.88"29.88"29.88"29.91"29.91"29.91"29.91"29.94"29.94"29.97"29.97"29.97"29.97"29.97"
Wind Speed 6 mph6.1 mph6.9 mph6.8 mph5.5 mph3.6 mph5.9 mph4 mph4.4 mph1.4 mph2.6 mph4.1 mph3.3 mph1.9 mph2.2 mph1.6 mph2.1 mph2.6 mph3.4 mph2.7 mph3.6 mph4.6 mph5.6 mph6.1 mph6.9 mph7.7 mph8.3 mph10.3 mph9.7 mph11 mph8.8 mph6.4 mph6 mph5.4 mph3.6 mph3.3 mph2.8 mph2.1 mph2.4 mph1.2 mph1.5 mph2 mph1.9 mph1.8 mph2.1 mph3.7 mph6.2 mph8.7 mph
Wind
Direction
256°
WSW
272°
W
276°
W
284°
WNW
302°
WNW
354°
N
308°
NW
165°
SSE
197°
SSW
181°
S
184°
S
185°
S
183°
S
194°
SSW
196°
SSW
201°
SSW
195°
SSW
196°
SSW
197°
SSW
202°
SSW
212°
SSW
241°
WSW
235°
SW
247°
WSW
259°
W
262°
W
261°
W
261°
W
273°
W
290°
WNW
289°
WNW
312°
NW
317°
NW
323°
NW
342°
NNW
340°
NNW
338°
NNW
327°
NNW
321°
NW
301°
WNW
293°
WNW
289°
WNW
286°
WNW
292°
WNW
296°
WNW
308°
NW
320°
NW
320°
NW

Daily Forecast

Date High Low Precip. Humidity
Today
Jun 13

Rain
82 °F
61 °F
100%
72%
Monday
Jun 14

Rain
84 °F
60 °F
86%
40%
Tuesday
Jun 15

Rain
72 °F
54 °F
73%
53%
Wednesday
Jun 16

Clouds
71 °F
51 °F
9%
33%
Thursday
Jun 17

Clouds
73 °F
47 °F
0%
37%
Friday
Jun 18

Rain
83 °F
52 °F
100%
38%
Saturday
Jun 19

Rain
77 °F
56 °F
100%
38%
Sunday
Jun 20

Clouds
80 °F
52 °F
0%
42%
Monday
Jun 21

Rain
80 °F
59 °F
96%
74%
Tuesday
Jun 22

Rain
82 °F
66 °F
83%
67%
Wednesday
Jun 23

Rain
82 °F
66 °F
100%
70%
Thursday
Jun 24

Rain
79 °F
67 °F
100%
92%
Friday
Jun 25

Rain
83 °F
62 °F
35%
43%
Saturday
Jun 26

Rain
73 °F
59 °F
53%
94%
Sunday
Jun 27

Clouds
76 °F
55 °F
11%
42%
Monday
Jun 28

Clear
81 °F
53 °F
0%
41%

Temperature 8-14 Day Outlook



Precipitation 8-14 Day Outlook




Quick Links
Cheat Lake News
Cheat Lake Photos
Cheat Lake Videos




About Us
Contact Us
Site Map
Search Site
Advertise With Us
   
Cheat.LakesOnline.com
THE CHEAT LAKE WEBSITE

Copyright 2021, Lakes Online
Privacy    |    Legal